Weather History for Brookings, OR

Change the Weather History Date:

Wednesday, November 20, 2013

  Actual Average Record
Temperature  
Mean Temperature 52 °F -  
Max Temperature 57 °F 56 °F 67 °F (1936)
Min Temperature 48 °F 43 °F 31 °F (1977)
Degree Days  
Heating Degree Days 12    
Growing Degree Days 2 (Base 50)    
Moisture  
Dew Point 47 °F    
Average Humidity 87    
Maximum Humidity 100    
Minimum Humidity 39    
Precipitation  
Precipitation 0.00 in - - ()
Sea Level Pressure  
Sea Level Pressure 29.92 in    
Wind  
Wind Speed 2 mph (WNW)    
Max Wind Speed 10 mph    
Max Gust Speed 20 mph    
Visibility 5 miles    
Events Fog    
Averages and records for this station are not official NWS values.
T = Trace of Precipitation, MM = Missing Value Source: NWS Daily Summary

Daily Weather History Graph

Daily Weather History Graph

Search for Another Location

Airport:

Trip Planner

Search our weather history database for the weather conditions in past years. The results will help you decide how hot, cold, wet, or windy it might be!

Date:

Astronomy

Nov. 20, 2013 Rise Set
Actual Time 7:13 AM PST 4:51 PM PST
Civil Twilight 6:43 AM PST 5:22 PM PST
Nautical Twilight 6:09 AM PST 5:56 PM PST
Astronomical Twilight 5:35 AM PST 6:29 PM PST
Moon 7:39 PM PST (11/20) 9:43 AM PST (11/20)
Length of Visible Light 10h 38m
Length of Day
9h 37m
Waning Gibbous, 91% of the Moon is Illuminated
Nov 20
Waning Gibbous
Nov 25
Last Quarter
Dec 2
New
Dec 9
First Quarter
Dec 17
Full

Hourly Weather History & Observations

Time (PST) Temp. Dew Point Humidity Pressure Visibility Wind Dir Wind Speed Gust Speed Precip Events Conditions
12:10 AM 51.8 °F 51.8 °F 100% 29.88 in 0.2 mi Calm Calm - N/A Fog Fog
12:28 AM 51.8 °F 51.8 °F 100% 29.87 in 0.8 mi Calm Calm - N/A   Overcast
12:32 AM 51.8 °F 51.8 °F 100% 29.87 in 1.2 mi Calm Calm - N/A   Overcast
12:35 AM 51.8 °F 51.8 °F 100% 29.87 in 2.0 mi South 3.5 mph - N/A   Mostly Cloudy
12:42 AM 51.8 °F 51.8 °F 100% 29.87 in 9.0 mi SSE 3.5 mph - N/A   Mostly Cloudy
12:56 AM 50.9 °F 50.9 °F 100% 29.88 in 0.2 mi WNW 3.5 mph - N/A Fog Fog
1:04 AM 51.8 °F 51.8 °F 100% 29.87 in 0.2 mi Calm Calm - N/A Fog Fog
1:56 AM 50.9 °F 50.9 °F 100% 29.88 in 0.2 mi Calm Calm - N/A Fog Fog
2:56 AM 50.0 °F 50.0 °F 100% 29.88 in 0.2 mi Calm Calm - N/A Fog Fog
3:10 AM 50.0 °F 50.0 °F 100% 29.87 in 0.2 mi Calm Calm - N/A Fog Fog
3:24 AM 50.0 °F 50.0 °F 100% 29.87 in 0.2 mi Calm Calm - N/A Fog Fog
3:34 AM 50.0 °F 50.0 °F 100% 29.87 in 0.2 mi Calm Calm - N/A Fog Fog
3:56 AM 50.0 °F 50.0 °F 100% 29.88 in 0.2 mi Calm Calm - N/A Fog Fog
4:03 AM 50.0 °F 50.0 °F 100% 29.87 in 0.2 mi Calm Calm - N/A Fog Fog
4:25 AM 50.0 °F 50.0 °F 100% 29.87 in 0.2 mi Calm Calm - N/A Fog Fog
4:43 AM 48.2 °F 48.2 °F 100% 29.88 in 0.2 mi Calm Calm - N/A Fog Fog
4:56 AM 50.0 °F 50.0 °F 100% 29.88 in 0.5 mi Calm Calm - N/A Fog Fog
5:12 AM 50.0 °F 50.0 °F 100% 29.88 in 1.0 mi Calm Calm - N/A   Overcast
5:21 AM 51.8 °F 51.8 °F 100% 29.88 in 1.5 mi Calm Calm - N/A   Overcast
5:30 AM 51.8 °F 51.8 °F 100% 29.88 in 3.0 mi Calm Calm - N/A   Overcast
5:38 AM 51.8 °F 51.8 °F 100% 29.88 in 5.0 mi Calm Calm - N/A   Overcast
5:56 AM 50.0 °F 50.0 °F 100% 29.89 in 8.0 mi Calm Calm - N/A   Overcast
6:56 AM 50.0 °F 50.0 °F 100% 29.90 in 10.0 mi Calm Calm - N/A   Overcast
7:56 AM 50.0 °F 50.0 °F 100% 29.91 in 10.0 mi South 3.5 mph - N/A   Overcast
8:56 AM 50.9 °F 50.9 °F 100% 29.93 in 6.0 mi Calm Calm - N/A   Overcast
9:29 AM 51.8 °F 51.8 °F 100% 29.92 in 9.0 mi SSW 4.6 mph - N/A   Scattered Clouds
9:56 AM 52.0 °F 52.0 °F 100% 29.93 in 7.0 mi West 3.5 mph - N/A   Clear
10:56 AM 52.9 °F 50.9 °F 93% 29.94 in 8.0 mi Calm Calm - N/A   Clear
11:56 AM 55.9 °F 50.0 °F 80% 29.92 in 7.0 mi Variable 4.6 mph - N/A   Clear
12:56 PM 55.9 °F 48.9 °F 77% 29.92 in 7.0 mi West 4.6 mph - N/A   Clear
1:56 PM 55.9 °F 48.9 °F 77% 29.91 in 9.0 mi Calm Calm - N/A   Partly Cloudy
2:56 PM 57.9 °F 48.9 °F 72% 29.91 in 9.0 mi Calm Calm - N/A   Clear
3:56 PM 56.8 °F 43.0 °F 60% 29.92 in 10.0 mi NNE 9.2 mph 16.1 mph N/A   Clear
4:56 PM 54.9 °F 39.9 °F 57% 29.94 in 10.0 mi North 9.2 mph 19.6 mph N/A   Clear
5:56 PM 52.9 °F 41.0 °F 64% 29.98 in 10.0 mi NNE 10.4 mph 19.6 mph N/A   Clear
6:56 PM 52.9 °F 36.0 °F 53% 30.00 in 10.0 mi Variable 6.9 mph - N/A   Clear
7:56 PM 52.0 °F 34.0 °F 50% 30.03 in 10.0 mi Variable 5.8 mph - N/A   Clear
8:56 PM 50.9 °F 31.1 °F 47% 30.04 in 10.0 mi Variable 3.5 mph - N/A   Clear
9:56 PM 50.0 °F 29.1 °F 45% 30.06 in 10.0 mi NNE 8.1 mph 16.1 mph N/A   Clear
10:56 PM 48.9 °F 26.1 °F 41% 30.07 in 10.0 mi Variable 6.9 mph - N/A   Clear
11:56 PM 50.0 °F 26.1 °F 39% 30.09 in 10.0 mi Variable 5.8 mph - N/A   Clear